Terug naar catalogus

STARLINK-31557

ActiefCommunicatieVLEO
NORAD 59357·PAYLOAD·🇺🇸 United States

Gelanceerd Mar 31, 2024 vanaf Cape Canaveral Space Force Station

Loading…

Volgende Passages (komende 24 uur)

TLE

VersSource: CelesTrak SupGP

Epoch: Sep 15, 2026, 03:08 UTC

1 59357C 24060K   26258.13104167 -.00017761  00000+0 -64337-3 0  2584
2 59357  43.0024 265.8983 0001315 267.0736  47.5560 15.27584119    17

Volg STARLINK-31557 in realtime met AllMySat

Download on the App Store